[[{"header":{"parameterUnit":"m.s-1","parameterCategory":1,"la1":30.2991,"la2":30.254,"lo1":-89.0895,"lo2":-89.0444,"dy":0.0017,"dx":0.0017,"nx":28,"ny":28,"refTime":"2026-01-06T03:00:00:Z","depth":0,"parameterNumber":2,"parameterNumberName":"U-component_of_WINDS"},"data":[0,0,0,0,0,0,0,0,0,0,0,0,0,0,0,0,0,0,0,0,0,0,0,0,0,0,0,0,0,0,0,0,0,0,0,0,0,0,0,0,0,0,0,0,0,0,0,0,0,0,0,0,0,0,0,0,0,0,1.3665,1.3666,0,1.3746,1.3747,1.3748,1.3777,1.3777,1.3777,1.3776,1.3864,1.3866,1.3869,0,0,0,0,0,0,0,0,0,0,0,0,0,1.3542,1.3544,1.3665,1.3666,1.3667,1.3746,1.3747,1.3748,1.3777,1.3777,1.3777,1.3776,1.3863,1.3866,1.3869,0,0,0,0,0,0,0,0,0,0,0,0,0,1.3606,1.3545,1.3665,1.3691,1.3694,1.3745,1.3747,1.3748,1.3777,1.3777,1.3777,1.3776,1.3862,1.3866,1.387,1.3902,0,0,1.3882,1.3883,0,0,0,0,0,0,0,0,1.3603,1.3611,1.3686,1.3689,1.3693,1.3751,1.3736,1.38,1.3777,1.3746,1.3776,1.3776,1.3827,1.3834,1.385,1.3906,1.391,1.3882,1.3884,1.3886,1.3887,0,0,0,0,0,0,0,1.3598,1.3608,1.3697,1.3687,1.3691,1.3701,1.3709,1.3748,1.3788,1.3749,1.3751,1.376,1.3829,1.3846,1.3852,1.3911,1.3882,1.3885,1.3888,1.3889,1.4002,1.4003,0,0,0,0,0,0,1.3589,1.3604,1.3695,1.37,1.3646,1.3703,1.3713,1.3733,1.3788,1.3795,1.376,1.3761,1.384,1.3848,1.3855,1.3899,1.3886,1.389,1.3892,1.4001,1.4002,1.4003,0,0,0,0,0,0,1.3586,1.3596,1.3691,1.3652,1.3665,1.3706,1.3728,1.3735,1.3752,1.3796,1.3804,1.377,1.384,1.385,1.3891,1.3902,1.3891,1.3895,1.4001,1.4002,1.4002,1.3985,0,0,0,0,0,0,1.3582,1.3595,1.3606,1.3652,1.3667,1.3723,1.3729,1.3737,1.3758,1.376,1.3808,1.3815,1.384,1.3885,1.3895,1.3908,1.3898,1.4,1.4001,1.4002,1.3985,1.3985,1.3986,0,0,0,0,0,1.3578,1.3599,1.3607,1.3618,1.3682,1.3724,1.3732,1.3759,1.3759,1.3772,1.3801,1.3814,1.3899,1.3889,1.39,1.3914,1.3999,1.4001,1.4002,1.3984,1.3985,1.3986,0,0,0,0,0,0,1.3554,1.3605,1.3615,1.3651,1.3683,1.3729,1.3745,1.3759,1.3792,1.3793,1.3826,1.3837,1.3875,1.3899,1.3886,1.395,1.395,1.3954,1.3933,1.3934,1.3935,1.3928,1.3901,0,0,0,0,0,1.3553,1.3581,1.3625,1.3653,1.3668,1.3704,1.3723,1.3741,1.3776,1.379,1.3822,1.3857,1.3892,1.3914,1.3949,1.3988,1.4001,1.4004,1.4005,1.4005,1.4008,1.4033,1.4036,1.4008,1.4008,1.4008,0,0,1.3551,1.3582,1.3598,1.3649,1.3676,1.3706,1.3715,1.3746,1.377,1.3796,1.3836,1.3861,1.3902,1.3943,1.3962,1.3964,1.4019,1.4007,1.4006,1.401,1.4035,1.4037,1.404,1.4009,1.4008,1.4008,0,0,1.3563,1.3589,1.3616,1.3643,1.3683,1.3707,1.3714,1.3758,1.3775,1.3816,1.3836,1.3866,1.3925,1.3955,1.3977,1.4003,1.4018,1.4014,1.4016,1.4041,1.4043,1.4045,1.4056,1.4059,1.4017,1.4017,1.4017,0,1.3556,1.3601,1.3628,1.3659,1.3682,1.3706,1.3734,1.376,1.381,1.3826,1.3826,1.3902,1.3932,1.3981,1.3987,1.4004,1.4015,1.4008,1.404,1.4042,1.4045,1.4056,1.406,1.4016,1.4016,1.4016,1.4016,0,1.3592,1.3623,1.364,1.3687,1.3712,1.3741,1.3775,1.3797,1.3814,1.3839,1.3882,1.3918,1.3961,1.3974,1.3991,1.4027,1.4026,1.4033,1.4034,1.4046,1.4057,1.4062,1.4015,1.4015,1.4015,1.4016,0,0,1.359,1.3653,1.3659,1.3681,1.3728,1.3754,1.3786,1.3828,1.3847,1.3881,1.3911,1.3961,1.3968,1.3994,1.4014,1.4035,1.4056,1.404,1.4041,1.4043,1.41,1.4095,1.41,1.4066,1.4067,1.4067,1.4097,0,1.3609,1.3666,1.3692,1.3738,1.3768,1.3793,1.3821,1.3855,1.3879,1.3911,1.3939,1.3974,1.398,1.3996,1.4018,1.4049,1.4068,1.4047,1.4096,1.4097,1.4085,1.4105,1.41,1.4126,1.4101,1.4102,1.4103,0,1.3639,1.3672,1.3721,1.3766,1.378,1.3805,1.3846,1.3875,1.3915,1.3932,1.3961,1.3981,1.4019,1.4017,1.4071,1.4055,1.4077,1.4096,1.4098,1.4104,1.4101,1.4113,1.4134,1.4139,1.4109,1.4109,1.4108,0,1.3634,1.3692,1.3729,1.3747,1.3801,1.3818,1.3842,1.3881,1.3905,1.3942,1.3958,1.3999,1.4022,1.4055,1.4087,1.4082,1.4138,1.4138,1.4155,1.4154,1.4165,1.4164,1.4192,1.4178,1.4178,1.4178,1.4178,0,1.3653,1.3682,1.3728,1.375,1.3785,1.3816,1.385,1.3876,1.3911,1.3941,1.3965,1.3993,1.4033,1.4067,1.4092,1.4134,1.4144,1.416,1.4167,1.4158,1.4156,1.4173,1.4173,1.4179,1.4179,1.4179,1.4178,0,1.3653,1.3685,1.3727,1.3775,1.3788,1.3811,1.3853,1.3878,1.3904,1.3942,1.3953,1.3995,1.4037,1.4072,1.4126,1.4144,1.4187,1.4195,1.4173,1.4177,1.4192,1.4191,1.4232,1.424,1.422,1.422,1.422,0,1.3663,1.3686,1.3737,1.3758,1.3781,1.3815,1.384,1.3873,1.3898,1.3946,1.3965,1.4008,1.4044,1.411,1.4147,1.419,1.4199,1.4211,1.4206,1.4197,1.4201,1.42,1.4203,1.4211,1.4211,1.4211,1.4211,0,1.3678,1.3693,1.3727,1.3767,1.3796,1.3829,1.3863,1.388,1.392,1.3947,1.3989,1.4017,1.4074,1.4117,1.4164,1.4191,1.4209,1.4213,1.4219,1.4211,1.4198,1.4207,1.4175,1.4212,1.4212,1.4212,1.4212,1.4212,1.3685,1.3707,1.3746,1.3784,1.3813,1.3845,1.3871,1.3901,1.3936,1.3984,1.4002,1.4046,1.4088,1.4153,1.418,1.4217,1.4219,1.4228,1.423,1.4232,1.4232,1.4192,1.4225,1.4225,1.4226,1.4226,1.4226,0,1.3702,1.3729,1.3763,1.381,1.3841,1.3854,1.3893,1.3918,1.3956,1.3993,1.4028,1.4078,1.4121,1.4162,1.4207,1.4229,1.4238,1.424,1.4239,1.4245,1.4226,1.4217,1.4232,1.4232,1.4232,1.4232,1.4232,1.4232,1.3714,1.3753,1.3773,1.3828,1.3856,1.3898,1.392,1.395,1.398,1.4035,1.407,1.4096,1.4136,1.4185,1.4226,1.4237,1.4253,1.4253,1.4266,1.4248,1.4246,1.4245,1.4237,1.4256,1.4256,1.4283,1.4283,1.4283]},{"header":{"parameterUnit":"m.s-1","parameterCategory":1,"la1":30.2991,"la2":30.254,"lo1":-89.0895,"lo2":-89.0444,"dy":0.0017,"dx":0.0017,"nx":28,"ny":28,"refTime":"2026-01-06T03:00:00:Z","depth":0,"parameterNumber":3,"parameterNumberName":"V-component_of_WINDS"},"data":[0,0,0,0,0,0,0,0,0,0,0,0,0,0,0,0,0,0,0,0,0,0,0,0,0,0,0,0,0,0,0,0,0,0,0,0,0,0,0,0,0,0,0,0,0,0,0,0,0,0,0,0,0,0,0,0,0,0,1.6404,1.6404,0,1.6383,1.6382,1.6382,1.6342,1.6341,1.634,1.634,1.6318,1.6319,1.6319,0,0,0,0,0,0,0,0,0,0,0,0,0,1.6412,1.6412,1.6404,1.6404,1.6404,1.6383,1.6382,1.6382,1.6342,1.6341,1.634,1.6339,1.6318,1.6319,1.6319,0,0,0,0,0,0,0,0,0,0,0,0,0,1.6402,1.6412,1.6405,1.6381,1.6379,1.6383,1.6382,1.6382,1.6342,1.6341,1.634,1.6339,1.6318,1.6319,1.6319,1.6343,0,0,1.6319,1.632,0,0,0,0,0,0,0,0,1.6402,1.6401,1.6385,1.6383,1.638,1.6364,1.6377,1.6369,1.6343,1.6356,1.634,1.6338,1.6335,1.6333,1.6332,1.6342,1.6341,1.6319,1.632,1.632,1.632,0,0,0,0,0,0,0,1.6403,1.6402,1.6396,1.6385,1.6382,1.6372,1.637,1.6376,1.6352,1.6355,1.6352,1.635,1.6333,1.6332,1.6331,1.6341,1.6319,1.632,1.632,1.632,1.6371,1.6372,0,0,0,0,0,0,1.6407,1.6403,1.6397,1.6395,1.6389,1.6373,1.637,1.637,1.6352,1.6348,1.6351,1.6348,1.6332,1.6331,1.633,1.6358,1.632,1.632,1.632,1.637,1.6371,1.6373,0,0,0,0,0,0,1.6407,1.6407,1.6397,1.6398,1.6396,1.6374,1.6375,1.6371,1.6369,1.6349,1.6345,1.6354,1.6331,1.633,1.634,1.6357,1.632,1.632,1.6368,1.637,1.6372,1.6415,0,0,0,0,0,0,1.6408,1.6407,1.6416,1.6399,1.6396,1.6408,1.6376,1.6371,1.637,1.6366,1.6351,1.6347,1.633,1.634,1.6341,1.6357,1.632,1.6367,1.6369,1.6371,1.6412,1.6418,1.6423,0,0,0,0,0,1.6408,1.6429,1.6417,1.6416,1.6407,1.6409,1.6408,1.6387,1.6371,1.638,1.6367,1.6347,1.6355,1.6342,1.6342,1.6358,1.6366,1.6368,1.6371,1.6409,1.6416,1.6423,0,0,0,0,0,0,1.645,1.6427,1.6413,1.6429,1.6421,1.6402,1.6413,1.6396,1.6393,1.639,1.6365,1.6362,1.6376,1.6367,1.6353,1.6381,1.6357,1.636,1.6386,1.6393,1.6398,1.64,1.6321,0,0,0,0,0,1.6461,1.6464,1.6443,1.646,1.6456,1.6436,1.6436,1.642,1.6412,1.6408,1.6396,1.6389,1.6389,1.639,1.639,1.641,1.6406,1.6421,1.6426,1.6431,1.6434,1.6445,1.6451,1.6382,1.6382,1.6381,0,0,1.6484,1.6471,1.6475,1.6468,1.646,1.6464,1.6433,1.6439,1.6442,1.6409,1.6419,1.6409,1.6399,1.6415,1.6421,1.6409,1.6453,1.6435,1.6439,1.6439,1.6448,1.6455,1.6461,1.6383,1.6383,1.6383,0,0,1.6528,1.6519,1.6531,1.6524,1.6513,1.6498,1.6501,1.6485,1.6478,1.6486,1.6462,1.6465,1.6467,1.6461,1.6458,1.6499,1.6481,1.6499,1.6529,1.654,1.6545,1.655,1.6565,1.6571,1.6502,1.6502,1.6503,0,1.6558,1.6563,1.654,1.6547,1.6545,1.6515,1.6528,1.6522,1.6511,1.6511,1.6496,1.6498,1.6489,1.6503,1.6513,1.6511,1.6514,1.6502,1.6546,1.6551,1.6555,1.6569,1.6575,1.6505,1.6505,1.6504,1.6504,0,1.6601,1.6605,1.6617,1.6607,1.6605,1.6615,1.6594,1.6596,1.658,1.6568,1.6577,1.6565,1.6562,1.6564,1.6549,1.6576,1.6568,1.6551,1.6526,1.6564,1.6578,1.6583,1.6508,1.6507,1.6507,1.6506,0,0,1.6672,1.6649,1.6653,1.6649,1.6634,1.6636,1.6645,1.6641,1.6643,1.6636,1.6644,1.6645,1.6628,1.6625,1.6609,1.6618,1.6653,1.6599,1.6599,1.6611,1.6682,1.6697,1.6703,1.664,1.6641,1.6642,1.6683,0,1.6714,1.6727,1.6706,1.6725,1.6728,1.67,1.6707,1.6699,1.6687,1.6688,1.6675,1.6677,1.6655,1.6653,1.666,1.6647,1.6667,1.6643,1.6647,1.6648,1.6652,1.671,1.6725,1.6765,1.6688,1.6689,1.669,0,1.6765,1.676,1.6779,1.6763,1.6763,1.6771,1.6766,1.6767,1.6757,1.6748,1.6744,1.6725,1.6732,1.6708,1.6718,1.6703,1.6703,1.6697,1.6698,1.6698,1.6672,1.6713,1.6777,1.6784,1.6697,1.6697,1.6696,0,1.6816,1.6815,1.6826,1.6822,1.6803,1.6809,1.6801,1.679,1.6789,1.6785,1.6784,1.678,1.6779,1.6777,1.6757,1.6741,1.677,1.6744,1.6763,1.6764,1.6772,1.6772,1.6838,1.677,1.677,1.677,1.677,0,1.6866,1.6879,1.6848,1.6855,1.6869,1.6844,1.6859,1.6848,1.6838,1.6843,1.6817,1.6822,1.6796,1.6798,1.6783,1.6794,1.6793,1.6786,1.6782,1.6789,1.679,1.679,1.6787,1.6772,1.6771,1.6771,1.6771,0,1.6926,1.6906,1.6916,1.6897,1.6893,1.6904,1.6887,1.6893,1.6879,1.6886,1.6886,1.6864,1.6865,1.6845,1.6842,1.6832,1.6851,1.6841,1.6854,1.6852,1.6873,1.6872,1.6942,1.695,1.6876,1.6877,1.6877,0,1.6959,1.6969,1.695,1.6951,1.6945,1.6947,1.6946,1.6922,1.6922,1.6911,1.6918,1.6917,1.6915,1.6918,1.6903,1.69,1.6891,1.6916,1.6891,1.6898,1.6893,1.6893,1.6894,1.6922,1.6923,1.6924,1.6924,0,1.7022,1.7011,1.701,1.7006,1.7005,1.7001,1.6995,1.6997,1.6971,1.6972,1.6973,1.6971,1.6968,1.6968,1.6963,1.6955,1.6936,1.6932,1.6937,1.6945,1.6952,1.6949,1.687,1.6931,1.693,1.693,1.6929,1.6929,1.707,1.7077,1.7065,1.7065,1.7058,1.7053,1.7058,1.7044,1.7044,1.704,1.7025,1.7029,1.7018,1.7009,1.7003,1.7005,1.6993,1.6999,1.7001,1.7004,1.7008,1.6951,1.7004,1.7004,1.7003,1.7003,1.7003,0,1.7132,1.7123,1.7123,1.7115,1.7115,1.7096,1.7088,1.709,1.7093,1.7084,1.7083,1.7084,1.7083,1.7067,1.7064,1.7069,1.706,1.7069,1.707,1.7068,1.7018,1.7015,1.7077,1.7077,1.7077,1.7077,1.7077,1.7077,1.7164,1.7175,1.7163,1.717,1.7161,1.7164,1.7161,1.7156,1.715,1.7152,1.7151,1.714,1.7129,1.7125,1.7123,1.7119,1.712,1.7132,1.7124,1.7079,1.7072,1.7065,1.7062,1.7132,1.7132,1.7174,1.7174,1.7175]}]]